sat.trackr.live / text

‹ back to catalog

STARLINK-35415

NORAD 65885 · 2025-224D

PAYLOAD ACTIVE UNKNOWN

§ Identity

Operator
Country
US
Launch date
2025-10-07
Launch site
AFETR
Launch vehicle
Mass (kg)
RCS (m²)

Purposes: comms

External: N2YO · Heavens-Above · Gunter

§ Orbital elements

Epoch: 2026-09-20T03:51:34.588800Z

Period
93.85 min
Inclination
53.1589°
Eccentricity
0.0002154
Mean motion
15.34405862 rev/d
Perigee alt
461.2 km
Apogee alt
464.2 km
Semi-major
6,840.8 km
B*
5.1312e-4
RAAN
183.4499°
Arg perigee
91.0898°
Mean anomaly
269.0351°
Rev number
5,461

§ Raw data

STARLINK-354151 65885U 25224D   26263.16081700  .00017003  00000+0  51312-3 0  99942 65885  53.1589 183.4499 0002154  91.0898 269.0351 15.34405862 54610

JSON: /api/v1/satellites/65885 · /tle

For live sub-satellite position, see the globe view (requires WebGL).

§ Visibility from observer

Set your observer location to see the next 7 days of passes ≥ 10°. The values pass through the URL so the page stays shareable.

No JS? Fill the form by hand. The geolocation button needs JavaScript.